GW6445 Weather Reports


Display with metric or nautical units.
time (UTC)temp
F
wind
direction
speed
MPH
gust
MPH
rain 1hr
in
rain 24hr
in
rain mn
in
humidity
%
barometer
mb
20260507064225 53 296 3.0 5.0 0.00 0.00 0.00 79 1020.8
20260507063720 53 265 1.0 5.0 0.00 0.00 0.00 78 1020.8
20260507063212 53 203 2.0 5.0 0.00 0.00 0.00 78 1020.9
20260507062703 53 338 4.0 4.0 0.00 0.00 0.00 79 1020.9
20260507062153 53 8 0.0 3.0 0.00 0.00 0.00 79 1021.0
20260507061648 53 111 1.0 7.0 0.00 0.00 0.00 80 1020.8
20260507061140 54 142 0.0 2.0 0.00 0.00 0.00 80 1020.9
20260507060631 54 277 3.0 3.0 0.00 0.00 0.00 81 1020.9
20260507060121 54 328 1.0 7.0 0.00 0.00 0.00 81 1020.7
20260507055616 54 23 3.0 4.0 0.00 0.00 0.00 82 1021.0
20260507055326 54 253 4.0 4.0 0.00 0.00 0.00 82 1021.0
20260507054552 54 92 2.0 3.0 0.00 0.00 0.00 82 1021.0
20260507054047 54 26 2.0 5.0 0.00 0.00 0.00 82 1020.9
20260507053533 54 26 2.0 7.0 0.00 0.00 0.00 83 1020.9
20260507053028 54 174 1.0 4.0 0.00 0.00 0.00 83 1020.8
20260507052520 54 22 0.0 3.0 0.00 0.00 0.00 82 1020.7
20260507052231 54 327 1.0 4.0 0.00 0.00 0.00 82 1020.9
20260507051504 54 351 2.0 5.0 0.00 0.00 0.00 82 1020.7
20260507050956 55 53 0.0 4.0 0.00 0.00 0.00 82 1020.7
20260507050709 55 8 2.0 3.0 0.00 0.00 0.00 81 1021.0
20260507045937 55 319 2.0 3.0 0.00 0.00 0.00 81 1020.9
20260507045432 55 29 3.0 5.0 0.00 0.00 0.00 81 1020.9
20260507044923 55 22 2.0 2.0 0.00 0.00 0.00 81 1020.7
20260507044416 55 302 2.0 4.0 0.00 0.00 0.00 81 1020.9
20260507043911 55 96 3.0 6.0 0.00 0.00 0.00 81 1020.7
20260507043403 55 279 0.0 7.0 0.00 0.00 0.00 81 1020.7
20260507043119 55 318 1.0 6.0 0.00 0.00 0.00 81 1020.5
20260507042350 55 158 1.0 5.0 0.00 0.00 0.00 81 1020.6
20260507042106 55 62 3.0 6.0 0.00 0.00 0.00 80 1020.3
20260507041337 56 15 3.0 3.0 0.00 0.00 0.00 80 1020.6
20260507040832 56 228 0.0 6.0 0.00 0.00 0.00 80 1020.5
20260507040545 56 211 2.0 4.0 0.00 0.00 0.00 80 1020.5
20260507035816 56 55 2.0 4.0 0.00 0.00 0.00 80 1020.5
20260507035306 56 40 3.0 6.0 0.00 0.00 0.00 79 1020.3
20260507035021 56 19 5.0 6.0 0.00 0.00 0.00 79 1020.4
20260507034510 56 23 5.0 6.0 0.00 0.00 0.00 79 1020.2
20260507033744 56 306 2.0 5.0 0.00 0.00 0.00 79 1020.2
20260507033723 56 9 3.0 5.0 0.00 0.00 0.00 79 1020.1
20260507032730 57 26 3.0 3.0 0.00 0.00 0.00 79 1020.0
20260507032216 57 108 2.0 4.0 0.00 0.00 0.00 79 1019.8
20260507031711 57 296 0.0 6.0 0.00 0.00 0.00 79 1020.0
20260507031203 57 15 2.0 6.0 0.00 0.00 0.00 78 1019.7
20260507030658 57 26 2.0 5.0 0.00 0.00 0.00 78 1019.7
20260507030150 58 73 3.0 5.0 0.00 0.00 0.00 78 1019.6
20260507025645 58 3 2.0 5.0 0.00 0.00 0.00 77 1019.6
20260507025130 58 18 3.0 6.0 0.00 0.00 0.00 77 1019.5
20260507024626 58 9 1.0 6.0 0.00 0.00 0.00 77 1019.5
20260507024117 58 311 2.0 6.0 0.00 0.00 0.00 77 1019.4
20260507023613 59 33 3.0 4.0 0.00 0.00 0.00 76 1019.4
20260507023059 59 12 2.0 6.0 0.00 0.00 0.00 76 1019.4
20260507022554 59 284 2.0 3.0 0.00 0.00 0.00 75 1019.4
20260507022045 60 334 7.0 8.0 0.00 0.00 0.00 73 1019.2
20260507021801 61 180 2.0 5.0 0.00 0.00 0.00 72 1019.3
20260507021026 62 30 3.0 4.0 0.00 0.00 0.00 72 1019.3
20260507020521 61 214 3.0 4.0 0.00 0.00 0.00 73 1019.2
20260507020234 62 186 1.0 6.0 0.00 0.00 0.00 72 1019.2
20260507015503 62 339 4.0 5.0 0.00 0.00 0.00 72 1019.2
20260507015000 63 283 0.0 3.0 0.00 0.00 0.00 70 1019.1
20260507014448 63 25 4.0 6.0 0.00 0.00 0.00 70 1019.3
20260507013943 63 31 3.0 6.0 0.00 0.00 0.00 70 1019.4
20260507013916 62 18 2.0 4.0 0.00 0.00 0.00 72 1019.4
20260507013144 61 68 1.0 5.0 0.00 0.00 0.00 73 1019.5
20260507012411 62 55 3.0 6.0 0.00 0.00 0.00 72 1019.4
20260507012125 62 39 5.0 5.0 0.00 0.00 0.00 72 1019.4
20260507011357 62 293 3.0 7.0 0.00 0.00 0.00 71 1019.4
20260507010852 63 349 1.0 6.0 0.00 0.00 0.00 70 1019.3
20260507010343 64 330 4.0 6.0 0.00 0.00 0.00 69 1019.5
20260507005835 64 104 2.0 8.0 0.00 0.00 0.00 69 1019.2
20260507005330 65 93 0.0 7.0 0.00 0.00 0.00 68 1019.2
20260507005040 64 343 5.0 8.0 0.00 0.00 0.00 68 1019.1
20260507004316 65 340 6.0 11.0 0.00 0.00 0.00 67 1019.0
20260507003808 66 108 3.0 5.0 0.00 0.00 0.00 66 1019.1
20260507003525 66 58 2.0 7.0 0.00 0.00 0.00 67 1019.1
20260507002755 66 299 1.0 7.0 0.00 0.00 0.00 67 1019.2
20260507002248 66 313 4.0 6.0 0.00 0.00 0.00 68 1019.2
20260507001736 66 39 2.0 7.0 0.00 0.00 0.00 67 1019.0
20260507001231 66 126 4.0 4.0 0.00 0.00 0.00 69 1019.0
20260507000943 66 319 3.0 4.0 0.00 0.00 0.00 69 1019.2
20260507000216 66 201 4.0 4.0 0.00 0.00 0.00 69 1019.0
20260506235711 66 310 3.0 9.0 0.00 0.00 0.00 69 1019.1
20260506235202 67 20 2.0 6.0 0.00 0.00 0.00 68 1019.0
20260506234656 67 34 4.0 6.0 0.00 0.00 0.00 68 1019.0
20260506234148 66 40 2.0 4.0 0.00 0.00 0.00 69 1019.0
20260506233639 66 47 3.0 6.0 0.00 0.00 0.00 69 1019.1
20260506233134 66 352 2.0 10.0 0.00 0.00 0.00 69 1018.8
20260506232844 67 66 3.0 4.0 0.00 0.00 0.00 68 1018.8
20260506232116 68 14 3.0 4.0 0.00 0.00 0.00 67 1018.7
20260506231608 68 135 4.0 5.0 0.00 0.00 0.00 68 1019.0
20260506231103 68 326 3.0 5.0 0.00 0.00 0.00 66 1019.0
20260506230814 69 325 5.0 5.0 0.00 0.00 0.00 66 1018.8
20260506230049 68 311 2.0 9.0 0.00 0.00 0.00 67 1018.8
20260506225542 69 286 3.0 4.0 0.00 0.00 0.00 65 1019.0
20260506225037 70 258 2.0 3.0 0.00 0.00 0.00 64 1019.1
20260506224528 70 78 2.0 5.0 0.00 0.00 0.00 63 1019.1
20260506224023 70 317 0.0 5.0 0.00 0.00 0.00 64 1019.1
20260506223509 68 255 2.0 5.0 0.00 0.00 0.00 66 1019.2
20260506223004 68 282 0.0 4.0 0.00 0.00 0.00 68 1019.3
20260506222450 67 46 0.0 3.0 0.00 0.00 0.00 68 1019.3
20260506221945 67 76 0.0 3.0 0.00 0.00 0.00 69 1019.4
20260506221431 67 38 2.0 4.0 0.00 0.00 0.00 68 1019.5
20260506220926 67 355 3.0 4.0 0.00 0.00 0.00 68 1019.4
20260506220417 67 338 1.0 5.0 0.00 0.00 0.00 69 1019.5
20260506215912 66 351 5.0 5.0 0.00 0.00 0.00 69 1019.5
20260506215404 66 357 4.0 8.0 0.00 0.00 0.00 69 1019.5
20260506214855 66 36 0.0 3.0 0.00 0.00 0.00 68 1019.4
20260506214350 67 113 4.0 4.0 0.00 0.00 0.00 68 1019.6
20260506213836 67 8 2.0 5.0 0.00 0.00 0.00 67 1019.4
20260506213331 68 290 0.0 6.0 0.00 0.00 0.00 67 1019.3
20260506212823 68 191 1.0 5.0 0.00 0.00 0.00 67 1019.1
20260506212318 67 93 2.0 5.0 0.00 0.00 0.00 69 1019.5
20260506211811 66 112 0.0 3.0 0.00 0.00 0.00 71 1019.5
20260506211306 65 163 1.0 5.0 0.00 0.00 0.00 71 1019.6
20260506210752 65 300 2.0 4.0 0.00 0.00 0.00 70 1019.8
20260506210247 65 124 3.0 4.0 0.00 0.00 0.00 72 1019.9
20260506205738 65 180 2.0 5.0 0.00 0.00 0.00 72 1019.8
20260506205233 65 104 2.0 4.0 0.00 0.00 0.00 72 1020.0
20260506204720 65 34 0.0 3.0 0.00 0.00 0.00 71 1020.0
20260506204215 65 140 0.0 3.0 0.00 0.00 0.00 71 1019.9
20260506203707 65 359 1.0 3.0 0.00 0.00 0.00 71 1019.8
20260506203201 64 23 2.0 4.0 0.00 0.00 0.00 72 1019.9
20260506202654 64 315 4.0 4.0 0.00 0.00 0.00 71 1019.8
20260506202149 65 68 1.0 2.0 0.00 0.00 0.00 71 1019.7
20260506201640 64 117 0.0 2.0 0.00 0.00 0.00 73 1019.7
20260506201136 63 49 1.0 3.0 0.00 0.00 0.00 74 1019.8
20260506200621 63 109 1.0 3.0 0.00 0.00 0.00 74 1019.9
20260506200336 63 6 2.0 3.0 0.00 0.00 0.00 76 1020.1
20260506195602 62 115 0.0 5.0 0.00 0.00 0.00 76 1020.1
20260506195057 62 240 0.0 2.0 0.00 0.00 0.00 77 1020.1
20260506194549 61 8 2.0 4.0 0.00 0.00 0.00 78 1020.4
20260506194044 61 319 5.0 5.0 0.00 0.00 0.00 78 1020.2
20260506193536 61 23 1.0 4.0 0.00 0.00 0.00 78 1020.5
20260506193030 61 310 2.0 4.0 0.00 0.00 0.00 78 1020.3
20260506192524 61 341 1.0 2.0 0.00 0.00 0.00 76 1020.3
20260506192015 61 309 0.0 5.0 0.00 0.00 0.00 76 1020.6
20260506191504 62 180 1.0 5.0 0.00 0.00 0.00 76 1020.4
20260506191000 62 180 2.0 2.0 0.00 0.00 0.00 76 1020.2
20260506190711 61 269 0.0 3.0 0.00 0.00 0.00 77 1020.2
20260506185943 61 225 4.0 6.0 0.00 0.00 0.00 76 1020.3
20260506185439 61 260 2.0 3.0 0.00 0.00 0.00 77 1020.3
20260506184930 61 242 2.0 3.0 0.00 0.00 0.00 77 1020.2
20260506184426 61 247 0.0 3.0 0.00 0.00 0.00 77 1020.2
20260506183414 60 284 1.0 2.0 0.00 0.00 0.00 79 1020.2
20260506182907 61 149 0.0 3.0 0.00 0.00 0.00 80 1020.3
20260506182401 60 289 2.0 5.0 0.00 0.00 0.00 80 1020.0
20260506181855 60 69 0.0 4.0 0.00 0.00 0.00 82 1020.2
20260506181348 59 97 2.0 2.0 0.00 0.00 0.00 83 1020.3
20260506180841 59 99 0.0 2.0 0.00 0.00 0.00 83 1020.4
20260506180335 58 168 0.0 2.0 0.00 0.00 0.00 83 1020.3
20260506175821 58 226 3.0 4.0 0.00 0.00 0.00 83 1020.4
20260506175316 59 134 0.0 2.0 0.00 0.00 0.00 82 1020.2
20260506174807 59 330 0.0 2.0 0.00 0.00 0.00 83 1020.3
20260506174524 58 319 0.0 2.0 0.00 0.00 0.00 83 1020.3
20260506173750 58 356 0.0 2.0 0.00 0.00 0.00 84 1020.2
20260506173244 58 78 0.0 2.0 0.00 0.00 0.00 85 1020.2
20260506172736 57 190 2.0 4.0 0.00 0.00 0.00 84 1020.1
20260506172231 58 195 1.0 5.0 0.00 0.00 0.00 84 1020.2
20260506171717 58 214 0.0 1.0 0.00 0.00 0.00 84 1020.2
20260506171432 57 231 2.0 3.0 0.00 0.00 0.00 84 1020.1
20260506170704 57 238 1.0 2.0 0.00 0.00 0.00 85 1020.0
20260506170421 57 221 1.0 4.0 0.00 0.00 0.00 85 1020.0
20260506165905 57 215 1.0 2.0 0.00 0.00 0.00 85 1020.1
20260506165140 57 196 3.0 3.0 0.00 0.00 0.00 85 1020.2
20260506164631 57 213 2.0 2.0 0.00 0.00 0.00 85 1020.3
20260506164127 57 233 1.0 3.0 0.00 0.00 0.00 85 1020.3
20260506163613 57 209 1.0 1.0 0.00 0.00 0.00 85 1020.2
20260506163108 57 184 2.0 4.0 0.00 0.00 0.00 84 1020.2
20260506162600 57 275 1.0 3.0 0.00 0.00 0.00 85 1020.0
20260506162056 57 128 1.0 4.0 0.00 0.00 0.00 84 1020.1
20260506161548 57 118 0.0 3.0 0.00 0.00 0.00 85 1020.2
20260506161300 57 312 1.0 2.0 0.00 0.00 0.00 85 1020.2
20260506160528 57 222 3.0 3.0 0.00 0.00 0.00 84 1020.0
20260506160023 57 160 0.0 2.0 0.00 0.00 0.00 84 1019.8
20260506155515 57 7 1.0 2.0 0.00 0.00 0.00 85 1019.7
20260506155007 56 82 2.0 2.0 0.00 0.00 0.00 85 1019.7
20260506154502 56 216 2.0 2.0 0.00 0.00 0.00 86 1019.5
20260506153955 56 9 1.0 3.0 0.00 0.00 0.00 86 1019.5
20260506153449 56 114 0.0 4.0 0.00 0.00 0.00 86 1019.5
20260506152941 56 131 4.0 5.0 0.00 0.00 0.00 86 1019.5
20260506152436 56 78 1.0 4.0 0.00 0.00 0.00 87 1019.5
20260506152142 55 119 1.0 2.0 0.00 0.00 0.00 88 1019.7
20260506151417 55 147 0.0 2.0 0.00 0.00 0.00 88 1019.9
20260506150903 55 89 0.0 2.0 0.00 0.00 0.00 88 1020.2
20260506150358 55 356 1.0 3.0 0.00 0.00 0.00 88 1020.2
20260506145844 55 168 0.0 2.0 0.00 0.00 0.00 88 1020.2
20260506145339 55 20 0.0 2.0 0.00 0.00 0.00 88 1020.4
20260506144831 55 220 0.0 3.0 0.00 0.00 0.00 88 1020.1
20260506144541 55 77 1.0 3.0 0.00 0.00 0.00 88 1020.1
20260506144036 55 310 2.0 3.0 0.00 0.00 0.00 88 1019.8
20260506143308 54 342 0.0 2.0 0.00 0.00 0.00 88 1020.0
20260506142759 54 356 3.0 4.0 0.00 0.00 0.00 88 1020.1
20260506142508 55 24 3.0 5.0 0.00 0.00 0.00 88 1019.5
20260506142004 55 324 5.0 5.0 0.00 0.00 0.00 88 1019.5
20260506141459 55 335 0.0 3.0 0.00 0.00 0.00 88 1019.4
20260506141220 55 353 3.0 3.0 0.00 0.00 0.00 88 1019.1
20260506140224 55 23 0.0 2.0 0.00 0.00 0.00 88 1019.1
20260506135939 55 340 1.0 2.0 0.00 0.00 0.00 88 1019.1
20260506135205 55 13 0.0 2.0 0.00 0.00 0.00 88 1019.3
20260506134700 55 10 3.0 3.0 0.00 0.00 0.00 88 1019.1
20260506134153 55 341 2.0 3.0 0.00 0.00 0.00 88 1019.2
20260506133648 55 331 2.0 2.0 0.00 0.00 0.00 88 1019.0
20260506133401 55 337 0.0 2.0 0.00 0.00 0.00 88 1019.1
20260506132631 55 341 0.0 2.0 0.00 0.00 0.00 88 1019.0
20260506132121 55 62 0.0 1.0 0.00 0.00 0.00 88 1018.9
20260506131615 55 336 1.0 2.0 0.00 0.00 0.00 88 1019.0
20260506131101 55 340 3.0 3.0 0.00 0.00 0.00 88 1018.9
20260506130816 55 218 0.0 1.0 0.00 0.00 0.00 88 1018.8
20260506130042 55 252 0.0 1.0 0.00 0.00 0.00 88 1018.8
20260506130025 56 345 0.0 0.0 0.00 0.00 0.00 88 1018.6
20260506125243 56 306 0.0 1.0 0.00 0.00 0.00 88 1018.6
20260506124518 56 217 0.0 1.0 0.00 0.00 0.00 88 1018.6
20260506124009 56 341 0.0 1.0 0.00 0.00 0.00 88 1018.6
20260506123504 56 51 0.0 1.0 0.00 0.00 0.00 88 1018.5
20260506123218 56 82 0.0 1.0 0.00 0.00 0.00 87 1018.5
20260506122451 56 5 0.0 2.0 0.00 0.00 0.00 87 1018.5
20260506122204 56 115 0.0 1.0 0.00 0.00 0.00 87 1018.7
20260506121658 55 311 0.0 1.0 0.00 0.00 0.00 87 1018.9
20260506121151 55 353 0.0 2.0 0.00 0.00 0.00 87 1018.7
20260506120423 56 0 2.0 3.0 0.00 0.00 0.00 87 1018.6
20260506115918 55 315 0.0 1.0 0.00 0.00 0.00 87 1018.5
20260506115410 56 86 1.0 2.0 0.00 0.00 0.00 87 1018.5
20260506114905 56 309 0.0 1.0 0.00 0.00 0.00 87 1018.4
20260506114357 56 22 0.0 2.0 0.00 0.00 0.00 87 1018.4
20260506113852 56 310 1.0 2.0 0.00 0.00 0.00 86 1018.3
20260506113343 56 60 0.0 3.0 0.00 0.00 0.00 86 1018.3
20260506112838 56 337 1.0 2.0 0.00 0.00 0.00 86 1018.4
20260506112330 56 348 1.0 2.0 0.00 0.00 0.00 86 1018.2
20260506111822 56 343 1.0 2.0 0.00 0.00 0.00 86 1018.2
20260506111317 56 22 2.0 3.0 0.00 0.00 0.00 86 1018.2
20260506110815 56 353 2.0 3.0 0.00 0.00 0.00 86 1018.1
20260506110304 56 0 0.0 2.0 0.00 0.00 0.00 86 1018.1
20260506105757 56 226 0.0 1.0 0.00 0.00 0.00 86 1018.1
20260506105253 56 330 2.0 2.0 0.00 0.00 0.00 85 1017.8
20260506104736 56 333 2.0 2.0 0.00 0.00 0.00 85 1017.7
20260506104232 56 108 0.0 3.0 0.00 0.00 0.00 85 1017.8
20260506103725 56 9 0.0 2.0 0.00 0.00 0.00 85 1017.7
20260506103219 56 315 2.0 3.0 0.00 0.00 0.00 85 1017.5
20260506102711 56 129 0.0 1.0 0.00 0.00 0.00 86 1017.4
20260506102426 56 334 2.0 2.0 0.00 0.00 0.00 86 1017.4
20260506101655 56 326 1.0 2.0 0.00 0.00 0.00 86 1017.4
20260506101412 56 297 0.0 2.0 0.00 0.00 0.00 86 1017.3
20260506100642 56 322 1.0 2.0 0.00 0.00 0.00 86 1017.3
20260506100137 56 83 1.0 2.0 0.00 0.00 0.00 85 1017.3
20260506095623 56 344 3.0 3.0 0.00 0.00 0.00 85 1017.2
20260506095119 56 328 0.0 2.0 0.00 0.00 0.00 85 1017.3
20260506094604 56 226 2.0 2.0 0.00 0.00 0.00 86 1017.1
20260506094059 56 334 1.0 2.0 0.00 0.00 0.00 86 1017.1
20260506093550 56 328 2.0 3.0 0.00 0.00 0.00 85 1017.2
20260506093039 56 44 0.0 3.0 0.00 0.00 0.00 85 1017.1
20260506092534 56 43 0.0 1.0 0.00 0.00 0.00 85 1017.0
20260506092020 56 135 0.0 2.0 0.00 0.00 0.00 85 1017.2
20260506091516 57 317 0.0 3.0 0.00 0.00 0.00 85 1017.1
20260506091008 57 337 2.0 4.0 0.00 0.00 0.00 85 1017.1
20260506090503 57 302 1.0 2.0 0.00 0.00 0.00 85 1017.0
20260506085949 57 326 2.0 4.0 0.00 0.00 0.00 85 1016.8
20260506085444 57 354 0.0 2.0 0.00 0.00 0.00 85 1017.0
20260506085156 57 351 1.0 2.0 0.00 0.00 0.00 84 1016.8
20260506084426 57 345 2.0 3.0 0.00 0.00 0.00 84 1017.0
20260506083921 58 291 1.0 2.0 0.00 0.00 0.00 84 1017.1
20260506083406 58 330 2.0 3.0 0.00 0.00 0.00 85 1017.0
20260506082902 58 336 0.0 2.0 0.00 0.00 0.00 85 1016.9
20260506082352 58 195 0.0 2.0 0.00 0.00 0.00 85 1017.0
20260506081847 58 336 0.0 2.0 0.00 0.00 0.00 85 1017.0
20260506081337 58 278 0.0 2.0 0.00 0.00 0.00 85 1017.1
20260506080829 58 5 2.0 2.0 0.00 0.00 0.00 85 1017.0
20260506080545 58 0 0.0 3.0 0.00 0.00 0.00 84 1016.9
20260506073500 58 315 1.0 2.0 0.00 0.00 0.00 83 1016.7
20260506072732 58 33 0.0 2.0 0.00 0.00 0.00 83 1016.4
20260506072443 58 311 1.0 2.0 0.00 0.00 0.00 84 1016.6
20260506071938 58 321 0.0 0.0 0.00 0.00 0.00 83 1016.3
20260506071210 58 299 0.0 3.0 0.00 0.00 0.00 83 1016.6
20260506070705 58 259 0.0 2.0 0.00 0.00 0.00 83 1016.4
20260506070151 59 311 0.0 3.0 0.00 0.00 0.00 83 1016.5